Regional Weather Roundup
Issued by NWS Kansas City/Pleasant Hill, MO

Home | Current Version | Previous Version | Graphics & Text | Print | Product List | Glossary Off
Versions: 1 2 3 4 5 6 7 8 9 10 11 12 13 14 15 16 17 18 19 20 21 22 23 24 25 26 27 28 29 30 31 32 33 34 35 36 37 38 39 40 41 42 43 44 45 46 47 48 49 50

000
ASUS43 KEAX 291404
RWREAX

WEATHER ROUNDUP FOR EASTERN KANSAS AND NORTHWEST MISSOURI
NATIONAL WEATHER SERVICE KANSAS CITY/PLEASANT HILL MO
900 AM CDT TUE JUL 29 2014

KSZ040-057-103>105-MOZ028-029-037-043-291500-
...KANSAS CITY METROPOLITAN AREA...

CITY           SKY/WX    TMP DP  RH WIND       PRES   REMARKS
K.C. INTL      MOSUNNY   69  61  75 CALM      30.18S
K.C. DOWNTOWN  SUNNY     71  61  70 CALM      30.17S
LEES SUMMIT    SUNNY     69  61  75 W3        30.18S
OLATHE - IXD   SUNNY     69  59  70 CALM      30.20R
OLATHE - OJC   SUNNY     69  59  70 CALM      30.18S
LAWRENCE       PTSUNNY   70  60  70 CALM      30.19S

$$

MOZ001>008-011>017-020>025-030>033-038>040-044>046-053-054-291500-
...NORTHERN AND CENTRAL MISSOURI...

CITY           SKY/WX    TMP DP  RH WIND       PRES   REMARKS
ST. JOSEPH     SUNNY     66  62  87 N5        30.20R
MOSBY          SUNNY     66  61  82 CALM      30.18S
WHITEMAN AFB   SUNNY     68  50  51 SW6       30.17S
CLINTON        SUNNY     70  61  73 SW6       30.19S
SEDALIA        SUNNY     70  57  63 SW8       30.18S
WARSAW         NOT AVBL
MARSHALL       SUNNY     70  61  73 SW3       30.18F
CHILLICOTHE      N/A     70  60  70 CALM      30.18S
KIRKSVILLE     SUNNY     68  60  75 W5        30.18R

$$

MOZ041-047>049-056>058-063>065-088>090-097-291500-
...EASTERN AND SOUTHERN MISSOURI...

CITY           SKY/WX    TMP DP  RH WIND       PRES   REMARKS
ST. LOUIS INTL MOSUNNY   70  57  63 W6        30.15S
SPIRIT OF STL  SUNNY     66  56  70 W3        30.15S
COLUMBIA       SUNNY     70  57  63 W5        30.18R
JEFFERSON CITY SUNNY     68  59  73 W3        30.17R
HANNIBAL       SUNNY     68  57  68 SW3       30.16S
ROLLA          SUNNY     67  54  63 W6        30.16S
LEBANON        SUNNY     70  54  56 CALM      30.20R
OSAGE BEACH    SUNNY     68  57  68 CALM      30.18S
SPRINGFIELD    SUNNY     69  55  60 S7        30.19R
BRANSON        MOSUNNY   73  55  53 SE6       30.20S
NEVADA         SUNNY     70  59  68 S6        30.20S
JOPLIN         PTSUNNY   71  58  63 S6        30.19S
WEST PLAINS    SUNNY     69  54  58 NE6       30.19R
MALDEN         SUNNY     70  59  68 CALM      30.15S

$$

IAZ060-094-KSZ022-034>040-054-083-096-NEZ052-066-093-291500-
...KANSAS...SOUTHEAST NEBRASKA AND IOWA...

CITY           SKY/WX    TMP DP  RH WIND       PRES   REMARKS
TOPEKA         MOSUNNY   70  58  65 CALM      30.19S
MANHATTAN      CLOUDY    70  57  63 CALM      30.21R
EMPORIA        CLOUDY    66  59  78 CALM      30.21R
CHANUTE        SUNNY     71  60  68 E5        30.19S
WICHITA        MOSUNNY   73  59  61 SE7       30.20S
OMAHA          MOSUNNY   64  58  80 N6        30.21S
LINCOLN        PTSUNNY   68  58  70 N6        30.23R
FALLS CITY     PTSUNNY   67  59  75 N3        30.19S
LAMONI         SUNNY     67  58  72 N6        30.19R
DES MOINES     MOSUNNY   67  57  70 NW6       30.17R

$$



USA.gov is the U.S. government's official web portal to all federal, state and local government web resources and services.